Precipitable_Water
0.38 0.40 0.38 0.37 0.34 0.32 0.32 0.33 0.34 0.34 0.34 0.33 0.33 0.34 0.33 0.32 0.26 0.24 0.30 0.33 0.30 0.32 0.37 0.42 0.47 0.52 0.55 0.61 0.67 0.71 0.74 0.76 0.77 0.78 0.78 0.79 0.80 0.82 0.81 0.82 0.83 0.78 0.70 0.68 0.68 0.70 0.70 0.71 0.70 0.71 0.71 0.73 0.74 0.73 0.72 0.72 0.73 0.78 0.84 0.83 0.80 0.82 0.84 0.86 0.90 0.97 1.04 1.13 1.18 1.17 1.17 1.19 1.21 1.22 1.24 1.26 1.25 1.24 1.27 1.35 1.43 1.45 1.46 1.44 1.44 1.48 1.54
0.33 0.35 0.35 0.36 0.33 0.33 0.31 0.30 0.32 0.35 0.36 0.35 0.34 0.32 0.33 0.33 0.30 0.31 0.32 0.33 0.33 0.35 0.39 0.46 0.53 0.61 0.66 0.71 0.76 0.78 0.76 0.76 0.76 0.77 0.77 0.77 0.78 0.79 0.80 0.80 0.79 0.73 0.70 0.68 0.67 0.65 0.63 0.63 0.65 0.66 0.68 0.69 0.70 0.68 0.64 0.68 0.73 0.80 0.84 0.79 0.78 0.81 0.79 0.81 0.90 0.95 1.02 1.08 1.12 1.14 1.14 1.15 1.19 1.23 1.26 1.28 1.27 1.25 1.29 1.36 1.40 1.42 1.42 1.41 1.42 1.45 1.49
0.28 0.31 0.32 0.32 0.31 0.31 0.30 0.33 0.37 0.37 0.38 0.39 0.40 0.37 0.35 0.35 0.34 0.35 0.35 0.34 0.33 0.43 0.52 0.52 0.59 0.66 0.72 0.74 0.72 0.73 0.76 0.77 0.77 0.76 0.76 0.78 0.79 0.79 0.80 0.79 0.73 0.70 0.72 0.69 0.66 0.61 0.60 0.64 0.67 0.66 0.67 0.67 0.68 0.68 0.65 0.68 0.75 0.82 0.82 0.79 0.80 0.82 0.80 0.81 0.87 0.94 1.00 1.04 1.07 1.08 1.10 1.13 1.14 1.18 1.24 1.27 1.28 1.28 1.33 1.36 1.37 1.39 1.40 1.37 1.40 1.45 1.48
0.27 0.32 0.32 0.33 0.33 0.32 0.30 0.30 0.35 0.36 0.35 0.34 0.37 0.35 0.36 0.32 0.29 0.34 0.37 0.35 0.34 0.45 0.55 0.60 0.63 0.66 0.67 0.67 0.70 0.72 0.75 0.77 0.76 0.76 0.77 0.77 0.77 0.76 0.76 0.73 0.72 0.71 0.72 0.67 0.64 0.62 0.64 0.68 0.70 0.68 0.66 0.65 0.67 0.66 0.67 0.71 0.77 0.84 0.83 0.83 0.82 0.81 0.84 0.84 0.85 0.91 0.96 1.01 1.03 1.05 1.08 1.08 1.10 1.14 1.20 1.26 1.29 1.34 1.38 1.38 1.38 1.39 1.38 1.36 1.39 1.43 1.46
0.28 0.34 0.36 0.34 0.32 0.29 0.23 0.24 0.32 0.36 0.35 0.35 0.39 0.40 0.40 0.39 0.40 0.36 0.33 0.35 0.45 0.52 0.56 0.52 0.57 0.62 0.66 0.69 0.71 0.72 0.74 0.76 0.77 0.76 0.75 0.75 0.74 0.74 0.72 0.71 0.71 0.72 0.69 0.65 0.64 0.66 0.69 0.70 0.69 0.71 0.69 0.67 0.68 0.71 0.73 0.76 0.81 0.84 0.84 0.85 0.85 0.84 0.85 0.85 0.83 0.87 0.91 0.94 0.95 0.98 1.03 1.08 1.12 1.17 1.20 1.25 1.27 1.29 1.32 1.37 1.40 1.36 1.35 1.35 1.37 1.42 1.44
0.31 0.35 0.37 0.37 0.29 0.19 0.16 0.31 0.39 0.40 0.38 0.39 0.36 0.35 0.37 0.41 0.42 0.39 0.40 0.43 0.51 0.54 0.55 0.53 0.55 0.59 0.62 0.66 0.72 0.76 0.74 0.74 0.75 0.76 0.76 0.75 0.73 0.73 0.73 0.72 0.71 0.70 0.69 0.68 0.70 0.72 0.72 0.71 0.73 0.75 0.73 0.73 0.75 0.79 0.81 0.83 0.83 0.84 0.83 0.83 0.83 0.83 0.84 0.83 0.81 0.82 0.84 0.85 0.87 0.92 0.98 1.05 1.13 1.15 1.20 1.23 1.27 1.30 1.32 1.34 1.35 1.34 1.34 1.32 1.36 1.41 1.45
0.33 0.38 0.37 0.30 0.21 0.18 0.28 0.35 0.37 0.40 0.41 0.41 0.40 0.40 0.41 0.42 0.46 0.48 0.47 0.49 0.51 0.56 0.58 0.58 0.61 0.66 0.71 0.74 0.74 0.75 0.77 0.75 0.73 0.73 0.74 0.73 0.72 0.71 0.69 0.69 0.69 0.68 0.69 0.71 0.73 0.72 0.71 0.71 0.75 0.76 0.77 0.82 0.85 0.85 0.86 0.85 0.87 0.86 0.87 0.84 0.84 0.86 0.85 0.83 0.80 0.78 0.78 0.79 0.84 0.89 0.95 1.02 1.08 1.12 1.18 1.24 1.26 1.28 1.29 1.29 1.30 1.31 1.32 1.29 1.33 1.42 1.44
0.40 0.33 0.31 0.20 0.19 0.32 0.36 0.34 0.34 0.36 0.37 0.39 0.40 0.39 0.44 0.46 0.46 0.46 0.45 0.51 0.57 0.59 0.60 0.63 0.66 0.68 0.71 0.73 0.73 0.73 0.75 0.77 0.76 0.74 0.72 0.72 0.71 0.68 0.67 0.64 0.65 0.68 0.70 0.71 0.70 0.68 0.72 0.73 0.76 0.79 0.82 0.89 0.90 0.87 0.89 0.88 0.88 0.88 0.89 0.90 0.89 0.90 0.86 0.81 0.74 0.72 0.74 0.77 0.84 0.90 0.94 0.98 1.02 1.08 1.14 1.14 1.13 1.18 1.23 1.24 1.28 1.32 1.33 1.31 1.34 1.40 1.43
0.27 0.28 0.28 0.26 0.34 0.30 0.29 0.28 0.33 0.40 0.37 0.39 0.37 0.32 0.41 0.49 0.50 0.48 0.47 0.55 0.59 0.61 0.62 0.64 0.67 0.70 0.71 0.66 0.67 0.76 0.77 0.77 0.76 0.73 0.72 0.72 0.70 0.67 0.67 0.69 0.71 0.75 0.77 0.75 0.72 0.70 0.70 0.72 0.76 0.82 0.85 0.89 0.90 0.90 0.89 0.90 0.91 0.91 0.93 0.95 0.95 0.91 0.87 0.79 0.71 0.69 0.71 0.75 0.81 0.87 0.93 0.95 0.97 1.04 1.08 1.07 1.06 1.09 1.11 1.14 1.17 1.21 1.26 1.27 1.36 1.38 1.39
0.33 0.27 0.25 0.24 0.22 0.17 0.21 0.32 0.40 0.51 0.51 0.49 0.49 0.40 0.40 0.53 0.59 0.61 0.55 0.54 0.57 0.60 0.64 0.67 0.69 0.71 0.62 0.56 0.61 0.73 0.79 0.80 0.79 0.79 0.76 0.75 0.74 0.73 0.73 0.77 0.79 0.81 0.80 0.78 0.77 0.71 0.69 0.72 0.80 0.86 0.89 0.90 0.90 0.89 0.88 0.88 0.89 0.91 0.97 1.00 1.00 0.93 0.86 0.79 0.67 0.64 0.65 0.70 0.75 0.81 0.89 0.93 0.96 0.98 1.04 1.04 1.02 1.05 1.02 1.03 1.05 1.14 1.23 1.27 1.34 1.39 1.38
0.31 0.29 0.23 0.21 0.18 0.21 0.30 0.33 0.36 0.48 0.53 0.53 0.54 0.44 0.40 0.55 0.63 0.67 0.62 0.60 0.63 0.64 0.65 0.67 0.68 0.61 0.52 0.54 0.63 0.76 0.81 0.83 0.83 0.78 0.77 0.78 0.79 0.80 0.80 0.80 0.80 0.82 0.79 0.78 0.77 0.75 0.74 0.74 0.83 0.88 0.90 0.91 0.89 0.87 0.88 0.89 0.91 0.91 0.96 1.00 0.99 0.93 0.84 0.77 0.72 0.66 0.61 0.64 0.71 0.77 0.82 0.89 0.94 0.93 0.93 0.96 0.98 1.01 0.99 1.00 1.02 1.10 1.19 1.24 1.30 1.37 1.40
0.30 0.28 0.25 0.22 0.26 0.26 0.34 0.38 0.42 0.49 0.55 0.52 0.45 0.28 0.30 0.53 0.64 0.68 0.68 0.65 0.66 0.69 0.69 0.68 0.65 0.59 0.53 0.57 0.65 0.77 0.80 0.82 0.86 0.83 0.80 0.80 0.81 0.83 0.86 0.88 0.86 0.82 0.81 0.80 0.75 0.73 0.75 0.79 0.86 0.88 0.91 0.93 0.92 0.91 0.90 0.91 0.89 0.91 0.96 1.01 1.02 0.98 0.89 0.81 0.77 0.71 0.63 0.64 0.70 0.74 0.75 0.82 0.90 0.90 0.93 0.97 0.98 0.98 0.97 1.01 1.01 1.04 1.10 1.16 1.21 1.26 1.34
0.30 0.29 0.28 0.30 0.31 0.38 0.41 0.42 0.46 0.45 0.52 0.47 0.33 0.25 0.40 0.56 0.61 0.65 0.67 0.67 0.70 0.71 0.70 0.70 0.63 0.68 0.70 0.72 0.75 0.80 0.83 0.82 0.82 0.87 0.86 0.84 0.86 0.86 0.86 0.84 0.85 0.81 0.79 0.74 0.71 0.75 0.79 0.84 0.87 0.90 0.94 0.92 0.88 0.87 0.86 0.86 0.87 0.93 1.00 1.04 1.04 0.99 0.90 0.84 0.77 0.72 0.70 0.69 0.66 0.71 0.77 0.82 0.87 0.89 0.92 0.94 0.99 1.01 0.98 1.02 1.02 1.01 1.03 1.08 1.11 1.16 1.26
0.31 0.31 0.29 0.29 0.32 0.41 0.46 0.49 0.49 0.55 0.46 0.31 0.28 0.47 0.63 0.65 0.64 0.69 0.71 0.71 0.74 0.74 0.73 0.73 0.71 0.75 0.79 0.78 0.79 0.78 0.78 0.74 0.76 0.82 0.87 0.88 0.87 0.87 0.88 0.88 0.84 0.79 0.74 0.71 0.75 0.79 0.83 0.87 0.91 0.95 0.94 0.87 0.83 0.81 0.81 0.82 0.88 0.95 0.99 1.04 1.06 0.99 0.90 0.83 0.78 0.77 0.77 0.74 0.70 0.74 0.79 0.82 0.82 0.82 0.87 0.94 0.98 1.02 1.02 1.03 1.00 0.97 0.98 1.00 1.03 1.07 1.15
0.39 0.36 0.31 0.30 0.25 0.42 0.52 0.53 0.50 0.55 0.40 0.46 0.59 0.65 0.69 0.70 0.69 0.70 0.72 0.73 0.75 0.75 0.72 0.74 0.75 0.75 0.77 0.76 0.74 0.73 0.72 0.71 0.72 0.75 0.78 0.78 0.78 0.79 0.80 0.79 0.78 0.74 0.69 0.71 0.77 0.80 0.86 0.91 0.95 0.95 0.93 0.87 0.82 0.80 0.78 0.84 0.93 0.99 1.02 1.09 1.11 1.00 0.92 0.87 0.83 0.81 0.80 0.77 0.70 0.72 0.74 0.79 0.79 0.78 0.82 0.86 0.91 1.01 1.00 0.97 0.94 0.91 0.89 0.89 0.89 0.95 1.01
0.33 0.33 0.30 0.30 0.39 0.48 0.56 0.53 0.45 0.55 0.59 0.66 0.70 0.69 0.67 0.71 0.71 0.71 0.71 0.73 0.74 0.75 0.73 0.73 0.74 0.75 0.74 0.74 0.73 0.72 0.71 0.72 0.74 0.76 0.78 0.80 0.79 0.79 0.79 0.75 0.73 0.74 0.73 0.76 0.79 0.83 0.88 0.93 0.95 0.96 0.94 0.87 0.83 0.80 0.81 0.91 0.96 1.02 1.06 1.10 1.15 1.04 0.94 0.90 0.86 0.84 0.84 0.82 0.78 0.74 0.75 0.75 0.72 0.70 0.73 0.78 0.82 0.89 0.93 0.91 0.87 0.84 0.85 0.85 0.81 0.81 0.87
0.41 0.38 0.41 0.49 0.54 0.56 0.60 0.62 0.62 0.63 0.66 0.69 0.70 0.68 0.67 0.67 0.69 0.71 0.68 0.68 0.71 0.71 0.70 0.69 0.67 0.65 0.67 0.67 0.70 0.67 0.68 0.71 0.71 0.71 0.71 0.69 0.67 0.66 0.68 0.72 0.77 0.77 0.77 0.79 0.82 0.85 0.90 0.93 0.95 0.96 0.95 0.88 0.85 0.82 0.87 0.94 0.95 0.98 1.03 1.10 1.11 1.02 0.93 0.89 0.87 0.88 0.90 0.87 0.82 0.78 0.78 0.76 0.70 0.66 0.65 0.68 0.69 0.74 0.77 0.80 0.82 0.80 0.81 0.83 0.79 0.75 0.75
0.55 0.58 0.56 0.59 0.61 0.61 0.60 0.63 0.64 0.63 0.66 0.72 0.71 0.67 0.64 0.66 0.68 0.68 0.64 0.67 0.67 0.67 0.67 0.63 0.64 0.63 0.65 0.64 0.65 0.64 0.66 0.66 0.68 0.68 0.68 0.70 0.72 0.74 0.76 0.77 0.80 0.82 0.84 0.85 0.85 0.86 0.92 0.95 0.95 0.94 0.95 0.92 0.85 0.88 0.95 0.97 0.98 1.00 1.02 1.04 1.05 1.01 0.94 0.92 0.92 0.94 0.93 0.89 0.87 0.85 0.83 0.81 0.76 0.74 0.71 0.69 0.67 0.68 0.70 0.73 0.78 0.78 0.77 0.79 0.77 0.73 0.70
0.48 0.43 0.56 0.57 0.58 0.61 0.61 0.60 0.64 0.66 0.66 0.70 0.70 0.68 0.65 0.64 0.66 0.66 0.68 0.67 0.68 0.67 0.66 0.63 0.61 0.61 0.63 0.61 0.61 0.61 0.63 0.63 0.64 0.66 0.67 0.70 0.73 0.75 0.76 0.81 0.84 0.83 0.85 0.85 0.85 0.89 0.90 0.95 0.95 0.96 0.93 0.93 0.94 0.98 1.01 1.01 0.95 0.96 0.99 1.03 1.01 0.99 0.94 0.96 0.98 0.96 0.93 0.92 0.91 0.89 0.87 0.84 0.81 0.76 0.76 0.77 0.74 0.71 0.72 0.71 0.73 0.77 0.78 0.80 0.78 0.76 0.70
0.48 0.49 0.56 0.62 0.65 0.65 0.67 0.64 0.61 0.61 0.64 0.68 0.70 0.69 0.69 0.69 0.70 0.69 0.69 0.69 0.67 0.67 0.64 0.64 0.62 0.60 0.61 0.57 0.55 0.56 0.59 0.63 0.65 0.67 0.70 0.72 0.74 0.78 0.79 0.80 0.81 0.83 0.86 0.85 0.88 0.92 0.92 0.95 0.97 0.94 0.92 0.92 0.98 1.01 1.02 1.00 0.96 0.97 0.99 1.02 0.98 0.94 0.95 0.99 0.98 0.96 0.96 0.97 0.95 0.89 0.87 0.87 0.84 0.80 0.79 0.81 0.79 0.78 0.77 0.75 0.73 0.72 0.75 0.79 0.81 0.82 0.79
0.57 0.59 0.60 0.63 0.63 0.63 0.64 0.66 0.68 0.69 0.68 0.68 0.70 0.70 0.70 0.69 0.67 0.67 0.69 0.69 0.67 0.66 0.65 0.65 0.62 0.60 0.61 0.62 0.63 0.62 0.64 0.66 0.67 0.69 0.71 0.74 0.76 0.78 0.78 0.82 0.85 0.85 0.88 0.90 0.94 0.95 0.95 0.97 0.95 0.91 0.91 0.93 0.98 1.00 1.01 0.99 0.95 0.96 0.98 0.97 0.95 0.94 0.97 0.98 0.97 0.99 0.98 0.98 0.95 0.91 0.88 0.89 0.90 0.90 0.88 0.87 0.86 0.85 0.89 0.90 0.85 0.80 0.77 0.80 0.84 0.87 0.89
0.46 0.47 0.53 0.58 0.49 0.50 0.57 0.63 0.65 0.68 0.71 0.71 0.70 0.71 0.70 0.70 0.69 0.70 0.68 0.68 0.69 0.69 0.68 0.65 0.65 0.63 0.63 0.65 0.65 0.62 0.64 0.65 0.68 0.72 0.73 0.76 0.76 0.78 0.81 0.84 0.87 0.90 0.94 0.95 0.96 0.96 0.97 0.97 0.94 0.92 0.92 0.93 0.95 1.01 1.02 0.99 0.96 0.92 0.92 0.92 0.93 0.94 0.96 0.95 0.95 0.97 0.99 0.99 0.97 0.93 0.91 0.90 0.90 0.92 0.99 0.99 0.98 0.93 0.92 0.95 0.94 0.93 0.90 0.86 0.88 0.90 0.89
0.45 0.53 0.56 0.58 0.56 0.57 0.60 0.63 0.67 0.69 0.71 0.71 0.70 0.69 0.69 0.70 0.70 0.69 0.67 0.64 0.64 0.66 0.67 0.70 0.66 0.65 0.64 0.66 0.69 0.67 0.67 0.68 0.71 0.73 0.74 0.74 0.75 0.79 0.84 0.85 0.87 0.90 0.94 0.97 0.96 0.94 0.94 0.94 0.94 0.96 0.95 0.94 0.93 0.97 0.99 0.98 0.98 0.96 0.95 0.93 0.92 0.92 0.93 0.92 0.94 0.97 0.99 0.97 0.96 0.95 0.95 0.94 0.91 0.89 0.90 0.96 1.01 1.03 1.03 1.01 0.99 0.97 0.96 0.95 0.94 0.94 0.93
0.54 0.56 0.57 0.60 0.56 0.54 0.60 0.65 0.65 0.66 0.68 0.67 0.66 0.66 0.67 0.68 0.69 0.70 0.68 0.66 0.64 0.66 0.67 0.69 0.69 0.66 0.65 0.66 0.66 0.65 0.68 0.70 0.71 0.72 0.74 0.75 0.78 0.80 0.84 0.85 0.86 0.90 0.93 0.94 0.93 0.92 0.95 0.97 0.97 0.97 0.96 0.95 0.95 0.98 1.00 1.00 1.02 0.99 0.98 0.95 0.92 0.92 0.93 0.94 0.95 0.97 0.96 0.94 0.94 0.93 0.94 0.96 0.93 0.90 0.88 0.86 0.89 0.98 1.03 1.04 1.05 1.02 1.00 0.98 0.97 0.95 0.95
0.50 0.57 0.61 0.63 0.60 0.59 0.62 0.64 0.64 0.65 0.66 0.63 0.61 0.61 0.62 0.63 0.65 0.65 0.63 0.63 0.64 0.63 0.64 0.66 0.69 0.69 0.65 0.64 0.62 0.61 0.62 0.67 0.71 0.72 0.74 0.77 0.79 0.80 0.83 0.86 0.87 0.87 0.89 0.91 0.94 0.97 1.00 1.00 0.98 0.97 0.95 0.96 0.99 1.00 1.02 1.03 1.05 1.02 1.01 0.99 0.96 0.96 0.95 0.95 0.97 1.00 0.98 0.95 0.93 0.92 0.92 0.93 0.93 0.91 0.88 0.86 0.83 0.84 0.93 1.02 1.06 1.06 1.04 1.03 1.00 0.98 0.97
0.59 0.59 0.60 0.61 0.59 0.56 0.60 0.59 0.59 0.60 0.62 0.62 0.60 0.60 0.63 0.64 0.64 0.64 0.64 0.65 0.66 0.69 0.70 0.71 0.69 0.70 0.68 0.64 0.63 0.64 0.65 0.68 0.73 0.77 0.76 0.76 0.78 0.79 0.80 0.82 0.86 0.89 0.91 0.94 0.96 0.97 0.97 0.96 0.97 0.99 0.98 1.00 1.02 1.03 1.05 1.05 1.04 1.01 1.00 0.99 0.98 0.99 0.99 0.98 0.98 0.99 0.98 0.96 0.93 0.91 0.93 0.95 0.96 0.95 0.92 0.89 0.86 0.86 0.85 0.88 0.95 1.03 1.06 1.06 1.04 1.02 0.99
0.54 0.54 0.52 0.50 0.49 0.50 0.51 0.47 0.49 0.56 0.58 0.58 0.57 0.60 0.62 0.64 0.65 0.64 0.66 0.67 0.68 0.70 0.70 0.70 0.70 0.70 0.71 0.70 0.70 0.71 0.69 0.74 0.75 0.73 0.73 0.73 0.73 0.75 0.80 0.84 0.87 0.90 0.91 0.93 0.92 0.92 0.93 0.97 0.99 0.98 0.99 1.03 1.06 1.06 1.04 1.03 1.01 1.00 0.98 0.96 0.97 1.00 1.03 1.05 1.02 0.99 0.96 0.94 0.92 0.94 0.97 0.99 1.00 0.98 0.94 0.91 0.88 0.87 0.85 0.85 0.86 0.87 0.91 0.98 1.03 1.03 1.01
0.51 0.52 0.46 0.37 0.38 0.41 0.46 0.51 0.54 0.57 0.58 0.59 0.60 0.59 0.61 0.63 0.64 0.65 0.64 0.63 0.64 0.66 0.69 0.70 0.69 0.70 0.70 0.74 0.73 0.73 0.76 0.75 0.73 0.73 0.73 0.72 0.75 0.78 0.80 0.82 0.85 0.86 0.87 0.87 0.87 0.89 0.94 0.99 1.02 1.02 0.98 0.98 1.03 1.05 1.03 1.01 0.99 0.98 0.99 0.99 0.98 0.97 0.99 1.01 1.01 0.99 0.96 0.93 0.94 0.94 0.96 0.98 1.00 0.97 0.95 0.91 0.88 0.88 0.90 0.91 0.90 0.89 0.90 0.94 0.97 1.00 1.02
0.46 0.47 0.50 0.47 0.47 0.52 0.56 0.59 0.59 0.58 0.59 0.63 0.64 0.63 0.63 0.61 0.63 0.61 0.59 0.58 0.61 0.63 0.62 0.66 0.70 0.73 0.72 0.73 0.74 0.70 0.70 0.70 0.70 0.71 0.73 0.76 0.78 0.80 0.82 0.82 0.83 0.85 0.86 0.87 0.89 0.93 0.99 1.02 1.04 1.02 1.01 1.05 1.10 1.10 1.07 1.05 1.01 1.00 1.00 1.02 1.01 0.99 0.98 0.96 0.95 0.95 0.95 0.97 0.97 0.97 0.96 0.95 0.93 0.91 0.91 0.90 0.89 0.89 0.89 0.89 0.90 0.92 0.91 0.92 0.93 0.94 0.97
0.44 0.46 0.47 0.50 0.55 0.59 0.57 0.57 0.59 0.62 0.64 0.66 0.65 0.63 0.63 0.62 0.61 0.61 0.61 0.62 0.63 0.63 0.67 0.72 0.73 0.74 0.76 0.73 0.73 0.73 0.71 0.71 0.72 0.74 0.75 0.77 0.78 0.78 0.79 0.81 0.81 0.84 0.85 0.86 0.89 0.94 0.98 1.04 1.09 1.09 1.08 1.12 1.13 1.12 1.08 1.03 1.01 1.00 1.01 1.02 1.02 1.00 0.98 0.96 0.97 0.97 0.98 0.99 0.99 0.98 0.95 0.93 0.92 0.92 0.92 0.91 0.91 0.91 0.90 0.89 0.90 0.89 0.88 0.88 0.88 0.87 0.86
0.46 0.46 0.48 0.52 0.56 0.60 0.61 0.62 0.63 0.65 0.66 0.66 0.65 0.64 0.65 0.65 0.64 0.63 0.64 0.66 0.68 0.69 0.73 0.75 0.75 0.76 0.75 0.72 0.73 0.74 0.74 0.71 0.68 0.68 0.69 0.70 0.71 0.73 0.75 0.78 0.75 0.76 0.80 0.87 0.94 1.03 1.08 1.12 1.14 1.11 1.14 1.13 1.11 1.12 1.10 1.07 1.05 1.05 1.07 1.09 1.10 1.07 1.03 1.02 1.02 1.02 1.01 0.99 0.98 0.94 0.91 0.88 0.87 0.86 0.86 0.85 0.86 0.87 0.87 0.88 0.89 0.90 0.90 0.89 0.88 0.87 0.88
0.52 0.52 0.54 0.57 0.58 0.59 0.62 0.64 0.64 0.64 0.64 0.65 0.63 0.61 0.63 0.63 0.62 0.62 0.64 0.66 0.70 0.71 0.72 0.71 0.70 0.69 0.69 0.71 0.72 0.69 0.67 0.67 0.69 0.72 0.74 0.76 0.77 0.79 0.83 0.86 0.87 0.89 0.89 0.93 1.01 1.09 1.12 1.14 1.13 1.17 1.11 1.10 1.09 1.08 1.15 1.19 1.16 1.10 1.09 1.11 1.11 1.16 1.15 1.10 1.04 1.02 1.01 0.99 0.96 0.92 0.87 0.82 0.82 0.83 0.83 0.83 0.83 0.84 0.84 0.83 0.84 0.86 0.86 0.86 0.85 0.86 0.90
0.50 0.50 0.52 0.55 0.57 0.58 0.59 0.62 0.61 0.61 0.62 0.63 0.66 0.69 0.71 0.70 0.69 0.67 0.69 0.71 0.72 0.72 0.70 0.68 0.67 0.66 0.66 0.68 0.69 0.69 0.70 0.72 0.76 0.79 0.81 0.82 0.87 0.92 0.94 0.94 0.92 0.92 0.94 1.00 1.08 1.11 1.11 1.11 1.12 1.15 1.10 1.09 1.07 1.05 1.10 1.14 1.16 1.10 1.10 1.11 1.12 1.18 1.14 1.10 1.04 1.01 0.99 0.97 0.93 0.89 0.86 0.85 0.86 0.85 0.85 0.86 0.87 0.88 0.88 0.87 0.87 0.86 0.86 0.86 0.86 0.87 0.89
0.47 0.48 0.52 0.56 0.56 0.54 0.54 0.58 0.62 0.62 0.66 0.69 0.71 0.72 0.71 0.71 0.71 0.72 0.73 0.73 0.71 0.69 0.66 0.64 0.63 0.62 0.64 0.65 0.68 0.71 0.73 0.73 0.74 0.78 0.83 0.87 0.91 0.95 0.97 0.98 0.98 0.98 1.01 1.04 1.06 1.06 1.08 1.09 1.14 1.11 1.05 1.02 1.02 1.05 1.09 1.08 1.05 1.04 1.08 1.10 1.11 1.10 1.05 1.04 1.03 1.00 0.97 0.94 0.92 0.92 0.91 0.88 0.87 0.86 0.86 0.87 0.88 0.88 0.87 0.85 0.84 0.83 0.83 0.84 0.85 0.87 0.88
0.54 0.55 0.59 0.61 0.63 0.64 0.65 0.63 0.64 0.66 0.68 0.67 0.68 0.68 0.70 0.73 0.75 0.74 0.74 0.70 0.65 0.65 0.66 0.65 0.64 0.65 0.66 0.67 0.67 0.69 0.72 0.73 0.78 0.82 0.87 0.92 0.95 0.99 1.01 0.99 1.01 1.02 1.01 1.01 1.02 1.02 1.03 1.03 1.03 1.01 0.99 0.97 0.97 0.99 1.04 1.05 1.05 1.05 1.07 1.06 1.04 1.03 1.02 1.01 0.99 0.97 0.95 0.94 0.94 0.91 0.89 0.85 0.83 0.83 0.83 0.81 0.80 0.78 0.76 0.75 0.75 0.75 0.76 0.78 0.80 0.83 0.84
0.59 0.61 0.63 0.64 0.66 0.69 0.70 0.71 0.73 0.73 0.71 0.69 0.70 0.72 0.73 0.75 0.74 0.72 0.70 0.69 0.70 0.70 0.68 0.66 0.65 0.65 0.66 0.68 0.69 0.71 0.73 0.77 0.80 0.83 0.86 0.89 0.93 0.99 0.98 0.96 0.95 0.95 0.95 0.98 1.03 1.06 1.07 1.07 1.07 1.01 0.97 0.95 0.95 0.98 1.00 0.99 1.00 1.01 1.02 1.02 1.00 0.99 0.98 0.96 0.95 0.95 0.94 0.93 0.90 0.89 0.87 0.85 0.82 0.79 0.77 0.76 0.74 0.72 0.70 0.68 0.68 0.68 0.68 0.70 0.72 0.73 0.75
0.64 0.64 0.66 0.68 0.70 0.70 0.70 0.71 0.72 0.73 0.73 0.75 0.76 0.77 0.76 0.75 0.75 0.77 0.76 0.73 0.71 0.69 0.68 0.68 0.67 0.67 0.69 0.72 0.74 0.77 0.80 0.82 0.85 0.86 0.87 0.90 0.94 0.95 0.93 0.90 0.91 0.92 0.93 0.93 1.01 1.05 1.05 1.05 1.00 0.97 0.96 0.97 0.98 0.99 0.99 0.96 0.95 0.96 0.97 0.97 0.96 0.95 0.94 0.92 0.92 0.90 0.89 0.88 0.87 0.85 0.83 0.81 0.78 0.75 0.73 0.68 0.64 0.62 0.61 0.61 0.61 0.61 0.61 0.62 0.63 0.64 0.65
0.69 0.70 0.71 0.71 0.71 0.71 0.72 0.74 0.77 0.78 0.79 0.80 0.82 0.81 0.79 0.78 0.78 0.76 0.73 0.72 0.73 0.74 0.74 0.72 0.71 0.71 0.72 0.73 0.73 0.74 0.78 0.83 0.85 0.87 0.89 0.90 0.92 0.89 0.88 0.87 0.85 0.88 0.92 0.94 1.02 1.03 1.03 1.01 0.96 0.96 0.98 0.98 0.98 0.96 0.95 0.95 0.93 0.92 0.91 0.90 0.89 0.89 0.88 0.86 0.85 0.84 0.82 0.81 0.79 0.76 0.73 0.69 0.65 0.60 0.57 0.53 0.53 0.53 0.54 0.56 0.58 0.60 0.62 0.63 0.63 0.63 0.63
0.71 0.75 0.75 0.75 0.75 0.75 0.77 0.80 0.82 0.82 0.82 0.80 0.80 0.81 0.81 0.80 0.78 0.77 0.75 0.75 0.78 0.79 0.77 0.75 0.75 0.73 0.73 0.72 0.72 0.76 0.80 0.83 0.86 0.87 0.89 0.89 0.90 0.87 0.87 0.91 0.95 0.98 0.99 1.01 1.00 0.98 0.97 0.97 0.96 0.95 0.94 0.94 0.93 0.93 0.92 0.90 0.89 0.87 0.86 0.84 0.82 0.82 0.81 0.80 0.78 0.77 0.75 0.73 0.70 0.66 0.62 0.57 0.53 0.50 0.49 0.51 0.53 0.56 0.57 0.58 0.57 0.57 0.57 0.58 0.58 0.59 0.59
0.70 0.71 0.73 0.75 0.76 0.79 0.80 0.81 0.83 0.85 0.87 0.86 0.83 0.80 0.81 0.79 0.79 0.78 0.77 0.77 0.80 0.81 0.79 0.77 0.74 0.73 0.74 0.75 0.76 0.79 0.85 0.88 0.89 0.90 0.90 0.90 0.91 0.91 0.94 0.97 0.99 0.99 0.97 0.93 0.91 0.90 0.91 0.88 0.88 0.88 0.90 0.91 0.90 0.89 0.88 0.87 0.85 0.83 0.82 0.81 0.80 0.78 0.77 0.74 0.70 0.65 0.62 0.59 0.56 0.54 0.52 0.51 0.51 0.51 0.51 0.51 0.50 0.49 0.48 0.49 0.49 0.49 0.49 0.50 0.50 0.50 0.51
0.76 0.75 0.76 0.78 0.80 0.83 0.84 0.85 0.86 0.89 0.88 0.87 0.85 0.84 0.83 0.80 0.79 0.77 0.77 0.77 0.79 0.81 0.80 0.78 0.75 0.76 0.77 0.78 0.80 0.84 0.89 0.92 0.93 0.92 0.93 0.92 0.91 0.92 0.90 0.89 0.96 0.95 0.94 0.93 0.91 0.90 0.89 0.88 0.86 0.85 0.86 0.87 0.86 0.86 0.84 0.83 0.82 0.80 0.79 0.77 0.74 0.71 0.66 0.61 0.56 0.53 0.52 0.51 0.51 0.51 0.50 0.49 0.48 0.45 0.43 0.41 0.40 0.39 0.40 0.40 0.41 0.42 0.43 0.44 0.45 0.46 0.47
0.80 0.82 0.83 0.83 0.83 0.85 0.87 0.89 0.89 0.87 0.85 0.86 0.85 0.84 0.84 0.83 0.81 0.78 0.80 0.80 0.80 0.80 0.80 0.79 0.79 0.79 0.82 0.85 0.87 0.88 0.89 0.91 0.91 0.92 0.92 0.91 0.89 0.88 0.85 0.87 0.93 0.93 0.92 0.90 0.90 0.89 0.89 0.88 0.88 0.86 0.85 0.85 0.85 0.84 0.82 0.81 0.79 0.77 0.73 0.69 0.63 0.57 0.53 0.50 0.51 0.52 0.53 0.52 0.50 0.47 0.44 0.41 0.38 0.36 0.36 0.37 0.37 0.37 0.38 0.38 0.38 0.39 0.40 0.42 0.43 0.43 0.44
0.85 0.84 0.84 0.83 0.83 0.84 0.84 0.84 0.84 0.83 0.83 0.84 0.85 0.84 0.84 0.84 0.82 0.81 0.81 0.80 0.79 0.78 0.79 0.82 0.85 0.86 0.87 0.88 0.89 0.88 0.88 0.90 0.89 0.90 0.91 0.93 0.93 0.92 0.89 0.89 0.92 0.92 0.92 0.91 0.89 0.89 0.88 0.87 0.86 0.86 0.85 0.83 0.81 0.80 0.78 0.76 0.73 0.68 0.62 0.57 0.54 0.53 0.54 0.55 0.55 0.54 0.49 0.43 0.37 0.35 0.36 0.37 0.36 0.36 0.36 0.35 0.36 0.38 0.38 0.36 0.35 0.36 0.38 0.39 0.41 0.42 0.42
0.84 0.83 0.81 0.81 0.81 0.83 0.84 0.83 0.83 0.82 0.80 0.81 0.85 0.84 0.83 0.81 0.82 0.80 0.79 0.78 0.77 0.78 0.79 0.82 0.84 0.86 0.89 0.91 0.90 0.89 0.90 0.91 0.90 0.91 0.88 0.87 0.89 0.92 0.93 0.91 0.89 0.88 0.86 0.84 0.82 0.80 0.80 0.81 0.81 0.81 0.79 0.76 0.74 0.72 0.69 0.64 0.59 0.56 0.56 0.57 0.57 0.57 0.56 0.54 0.51 0.45 0.38 0.34 0.33 0.35 0.37 0.38 0.38 0.36 0.35 0.35 0.34 0.34 0.33 0.33 0.34 0.35 0.36 0.36 0.37 0.38 0.39
0.78 0.77 0.77 0.77 0.78 0.78 0.78 0.79 0.79 0.79 0.81 0.82 0.82 0.82 0.83 0.82 0.82 0.83 0.80 0.78 0.77 0.79 0.80 0.83 0.85 0.88 0.89 0.90 0.90 0.92 0.93 0.94 0.92 0.89 0.83 0.81 0.79 0.83 0.91 0.89 0.84 0.80 0.77 0.74 0.71 0.70 0.69 0.69 0.68 0.67 0.64 0.62 0.60 0.57 0.55 0.55 0.56 0.57 0.58 0.56 0.54 0.51 0.48 0.44 0.39 0.35 0.33 0.33 0.35 0.36 0.35 0.34 0.33 0.32 0.32 0.32 0.32 0.31 0.30 0.30 0.31 0.31 0.32 0.32 0.33 0.33 0.34
0.73 0.75 0.76 0.75 0.74 0.74 0.76 0.78 0.81 0.83 0.83 0.83 0.83 0.84 0.83 0.82 0.82 0.81 0.80 0.79 0.77 0.79 0.82 0.86 0.86 0.88 0.90 0.90 0.90 0.91 0.90 0.89 0.88 0.86 0.83 0.80 0.75 0.76 0.79 0.74 0.71 0.67 0.63 0.59 0.56 0.54 0.54 0.54 0.53 0.53 0.53 0.53 0.54 0.55 0.56 0.56 0.55 0.53 0.50 0.47 0.45 0.43 0.39 0.35 0.34 0.34 0.34 0.33 0.32 0.32 0.32 0.31 0.31 0.31 0.30 0.30 0.30 0.30 0.30 0.30 0.29 0.30 0.30 0.30 0.30 0.31 0.31
0.71 0.72 0.73 0.73 0.74 0.76 0.78 0.79 0.81 0.81 0.81 0.79 0.75 0.76 0.80 0.81 0.80 0.80 0.80 0.80 0.80 0.82 0.85 0.86 0.86 0.87 0.89 0.88 0.86 0.82 0.79 0.77 0.77 0.79 0.78 0.77 0.77 0.74 0.72 0.69 0.66 0.62 0.58 0.57 0.56 0.57 0.58 0.58 0.58 0.57 0.57 0.56 0.54 0.51 0.49 0.47 0.45 0.44 0.42 0.39 0.36 0.34 0.33 0.33 0.33 0.33 0.33 0.32 0.32 0.31 0.31 0.30 0.30 0.29 0.30 0.29 0.29 0.29 0.28 0.28 0.28 0.29 0.29 0.30 0.29 0.30 0.30
0.70 0.70 0.71 0.72 0.72 0.75 0.77 0.77 0.77 0.75 0.74 0.73 0.73 0.75 0.78 0.80 0.80 0.80 0.81 0.81 0.82 0.84 0.84 0.84 0.83 0.82 0.82 0.81 0.82 0.81 0.77 0.72 0.64 0.66 0.73 0.73 0.72 0.69 0.66 0.63 0.62 0.61 0.59 0.57 0.57 0.57 0.56 0.55 0.54 0.53 0.51 0.49 0.47 0.45 0.42 0.40 0.37 0.36 0.36 0.35 0.33 0.32 0.32 0.32 0.31 0.30 0.30 0.29 0.29 0.28 0.28 0.28 0.28 0.28 0.28 0.28 0.28 0.28 0.28 0.27 0.27 0.27 0.27 0.27 0.27 0.28 0.28
0.74 0.74 0.74 0.75 0.73 0.73 0.72 0.71 0.70 0.70 0.70 0.73 0.74 0.75 0.77 0.77 0.78 0.79 0.80 0.81 0.82 0.82 0.82 0.81 0.80 0.79 0.80 0.80 0.79 0.77 0.76 0.74 0.68 0.63 0.68 0.68 0.65 0.63 0.63 0.62 0.59 0.55 0.52 0.51 0.50 0.50 0.50 0.49 0.48 0.48 0.46 0.45 0.43 0.41 0.39 0.37 0.36 0.36 0.37 0.36 0.34 0.32 0.31 0.30 0.30 0.30 0.29 0.28 0.28 0.28 0.28 0.28 0.27 0.27 0.27 0.27 0.27 0.27 0.27 0.27 0.27 0.26 0.26 0.26 0.25 0.26 0.25
0.73 0.72 0.70 0.69 0.69 0.68 0.68 0.68 0.69 0.71 0.75 0.74 0.73 0.76 0.79 0.78 0.75 0.77 0.80 0.79 0.79 0.80 0.80 0.79 0.78 0.78 0.79 0.78 0.76 0.73 0.71 0.71 0.71 0.70 0.68 0.65 0.63 0.62 0.61 0.58 0.54 0.51 0.49 0.48 0.48 0.48 0.49 0.48 0.46 0.44 0.42 0.40 0.39 0.38 0.38 0.38 0.37 0.36 0.35 0.34 0.32 0.31 0.30 0.30 0.30 0.29 0.29 0.28 0.28 0.28 0.28 0.28 0.28 0.28 0.28 0.27 0.27 0.27 0.27 0.27 0.27 0.26 0.25 0.25 0.25 0.25 0.25
0.69 0.68 0.68 0.70 0.71 0.72 0.73 0.69 0.66 0.67 0.71 0.73 0.75 0.78 0.78 0.77 0.77 0.79 0.79 0.77 0.77 0.75 0.73 0.74 0.74 0.74 0.73 0.71 0.71 0.71 0.71 0.69 0.68 0.65 0.62 0.59 0.57 0.55 0.55 0.57 0.54 0.51 0.51 0.50 0.48 0.47 0.45 0.42 0.41 0.40 0.39 0.38 0.38 0.37 0.37 0.36 0.35 0.34 0.33 0.32 0.31 0.30 0.29 0.29 0.29 0.28 0.28 0.28 0.28 0.28 0.28 0.27 0.27 0.27 0.27 0.27 0.26 0.25 0.25 0.26 0.25 0.25 0.25 0.25 0.25 0.26 0.26
0.64 0.67 0.70 0.68 0.65 0.64 0.64 0.65 0.67 0.70 0.71 0.75 0.76 0.77 0.78 0.78 0.77 0.75 0.75 0.76 0.75 0.72 0.70 0.68 0.67 0.71 0.72 0.70 0.69 0.69 0.69 0.67 0.64 0.62 0.59 0.56 0.53 0.51 0.51 0.52 0.53 0.51 0.49 0.48 0.46 0.44 0.42 0.41 0.41 0.40 0.38 0.36 0.35 0.35 0.34 0.34 0.32 0.32 0.32 0.31 0.30 0.30 0.30 0.30 0.30 0.29 0.29 0.29 0.28 0.28 0.28 0.28 0.28 0.27 0.27 0.27 0.27 0.27 0.27 0.27 0.27 0.26 0.27 0.27 0.26 0.27 0.27
Wind_Speed
17 16 16 16 16 17 17 17 18 19 19 18 17 17 17 15 15 18 18 16 17 18 18 18 18 16 16 16 15 15 15 15 15 16 16 17 18 19 20 21 22 22 23 23 24 24 24 24 25 26 26 27 26 26 26 26 25 24 24 24 24 24 23 23 23 22 21 21 21 21 21 20 19 19 19 17 16 15 14 14 16 18 18 17 17 16 16
17 17 17 17 16 17 19 19 19 20 20 19 18 17 17 17 18 20 18 18 19 19 18 18 17 15 15 15 15 15 15 15 16 16 16 17 18 19 20 21 22 23 23 23 24 24 24 25 26 26 26 26 26 26 26 26 25 24 24 24 24 23 23 23 22 21 21 21 21 21 20 20 19 19 19 17 16 15 14 14 16 17 17 16 16 16 15
17 17 17 17 16 17 18 19 19 19 18 18 18 18 18 18 20 20 19 19 20 20 18 16 14 14 14 14 15 15 16 16 16 16 17 18 19 20 21 21 22 23 23 23 24 24 25 26 26 25 26 26 26 26 26 25 25 24 23 23 23 23 23 23 22 21 21 21 20 21 20 20 20 19 18 17 16 15 15 15 15 16 15 15 15 15 15
17 17 15 16 16 16 18 18 18 18 17 17 18 18 18 19 19 18 17 18 20 19 16 14 13 12 13 14 15 16 16 16 16 17 18 19 20 21 21 22 23 23 23 23 24 24 25 25 25 26 26 26 26 25 25 25 24 24 23 22 23 23 22 22 21 21 20 20 20 20 20 20 19 18 17 16 16 15 15 15 15 15 14 14 14 14 14
17 17 15 15 15 16 17 17 17 17 17 17 18 17 17 18 17 16 18 19 19 17 15 13 13 13 13 15 16 15 16 16 17 19 19 20 20 21 22 23 23 23 23 23 23 24 25 25 26 26 26 25 25 24 24 24 24 23 22 22 22 22 21 21 21 20 20 20 20 20 19 19 19 18 17 16 15 15 15 15 15 15 14 13 13 13 13
17 18 15 15 16 16 16 16 16 17 17 18 19 18 17 18 17 16 17 17 17 17 15 14 14 14 14 15 15 16 16 17 19 20 20 20 21 21 22 23 23 23 23 23 23 24 25 25 26 26 25 25 24 24 24 24 24 23 22 21 21 21 21 20 20 20 20 19 19 19 19 18 17 17 16 16 15 15 15 15 15 15 14 13 13 13 13
17 17 15 15 18 18 18 18 17 19 19 19 19 18 18 18 17 15 15 16 16 16 16 14 14 14 14 14 15 17 17 18 19 19 20 21 21 22 23 23 23 23 22 22 23 24 24 25 26 25 25 24 24 24 24 24 24 23 21 21 21 21 20 20 20 19 19 19 19 19 19 18 17 16 16 15 15 15 15 15 15 14 13 13 13 12 12
16 16 15 17 19 19 19 19 19 19 18 18 17 17 18 19 19 17 16 16 16 15 15 14 14 14 14 15 17 18 18 18 18 19 21 22 22 22 23 23 22 22 21 22 23 24 24 25 25 25 24 24 24 25 24 24 24 22 21 20 21 21 20 19 19 18 18 18 19 19 19 18 17 16 16 16 15 14 14 14 14 13 12 12 12 12 12
18 17 18 18 19 19 18 18 17 16 16 17 17 17 18 20 20 18 16 16 15 14 14 14 14 14 14 16 18 19 19 19 20 21 22 23 23 23 23 22 21 21 21 22 23 24 24 25 25 24 24 24 25 25 24 23 23 21 20 20 20 20 19 18 18 18 18 19 19 19 19 18 17 17 16 15 15 14 14 14 14 13 12 11 11 11 12
19 18 18 18 18 18 18 17 17 16 17 16 14 15 17 19 19 17 15 15 15 14 13 14 14 14 15 18 20 20 20 21 22 23 23 23 23 22 22 21 20 20 21 23 23 24 24 24 24 24 24 24 25 25 24 23 22 21 20 20 20 19 19 18 18 18 19 19 19 19 18 18 17 16 16 15 14 14 14 14 14 13 11 11 11 11 12
19 18 19 18 18 18 18 18 18 18 18 15 12 13 17 17 17 15 14 13 14 14 14 15 15 16 18 20 20 20 21 22 23 23 23 23 22 21 21 20 20 21 22 23 24 24 24 25 24 24 24 24 24 25 25 24 22 21 20 20 20 19 19 18 18 19 19 19 19 18 18 17 16 15 15 15 13 13 13 14 14 13 11 11 11 11 12
20 20 20 20 19 19 19 18 17 18 17 14 13 15 18 17 16 14 13 13 15 15 15 16 16 18 19 20 21 22 22 23 23 23 23 22 22 21 21 21 22 22 23 24 24 24 25 25 24 24 23 23 24 25 25 24 23 21 20 20 19 19 19 19 19 19 19 19 18 17 17 17 16 15 15 14 13 13 14 13 13 13 12 11 10 11 11
21 20 21 20 20 19 18 17 16 16 16 15 15 17 17 16 15 14 12 14 15 15 16 16 18 19 20 21 22 22 22 23 24 23 23 22 22 21 22 22 23 23 24 25 25 25 25 25 24 23 23 23 24 25 25 24 23 21 20 19 19 19 19 19 19 18 18 18 17 17 16 16 15 14 14 14 14 14 13 12 12 12 12 11 10 10 10
21 21 21 21 21 20 19 17 16 15 16 17 18 17 15 14 14 13 13 14 15 16 17 18 19 20 21 22 22 21 22 23 23 23 22 21 21 22 23 23 23 24 25 25 25 25 25 24 23 23 23 24 25 25 25 24 23 21 20 19 18 18 18 18 18 17 17 16 16 16 15 15 15 14 14 15 15 14 13 12 12 12 12 11 11 10 10
20 20 20 20 21 21 19 17 17 16 16 17 17 16 15 15 15 14 15 15 16 17 18 19 20 21 21 22 22 23 24 24 23 23 22 22 23 23 24 24 24 25 25 25 25 25 24 23 23 23 24 25 26 25 25 24 22 20 20 19 18 18 18 18 17 16 16 15 15 15 15 14 14 15 15 14 14 13 12 12 12 12 12 11 11 11 10
20 20 21 21 21 20 18 17 17 17 17 16 16 15 16 17 17 16 17 18 19 19 20 20 21 22 22 24 24 25 25 25 24 23 23 24 24 25 25 25 25 25 25 25 25 24 23 23 24 24 25 26 26 25 24 23 21 19 19 19 18 18 17 17 16 15 15 15 14 14 14 13 14 14 14 14 14 13 12 12 12 11 11 11 11 11 10
21 21 22 22 21 19 18 17 17 17 17 16 16 16 17 18 19 18 18 19 20 21 21 21 22 23 25 26 26 26 25 25 24 24 24 24 24 24 25 25 25 25 25 26 25 24 24 24 25 25 25 25 25 25 23 22 20 19 19 19 18 17 17 16 15 14 15 14 13 13 13 13 13 13 13 13 14 13 13 13 12 12 11 11 11 11 10
21 21 21 21 20 19 19 18 17 18 18 18 18 18 18 19 20 20 20 20 21 21 22 23 24 25 26 27 27 27 26 25 25 24 24 24 24 24 25 25 25 26 26 26 25 25 25 25 25 25 25 25 25 24 23 21 20 19 19 18 17 16 15 14 14 14 13 12 12 12 13 13 13 13 13 13 13 13 13 13 12 12 12 11 11 11 10
20 20 21 21 19 19 19 18 17 18 18 19 19 18 18 19 19 20 21 21 22 23 23 24 25 26 26 26 26 26 25 25 25 24 24 24 25 25 26 26 27 27 26 26 26 26 26 25 25 25 24 24 24 23 22 20 20 19 18 17 16 15 14 14 14 13 12 11 12 12 12 12 13 13 13 13 13 13 13 13 13 13 12 12 11 11 10
19 20 20 18 16 16 17 16 16 16 17 17 17 17 17 18 19 20 21 22 23 24 25 25 26 26 26 26 26 26 25 25 25 25 25 25 26 27 27 28 28 27 27 26 26 26 26 25 25 25 24 23 23 22 20 19 19 18 16 15 14 14 14 14 13 12 11 11 12 12 12 13 13 13 13 12 13 13 13 13 13 13 13 13 12 11 11
18 19 18 17 15 16 17 16 16 16 16 16 17 18 19 20 20 21 22 23 23 24 25 26 26 26 26 26 26 26 25 25 26 26 26 26 26 27 27 27 27 27 27 27 26 26 26 25 24 24 23 23 22 20 19 18 17 16 14 14 14 14 14 14 13 12 11 12 12 12 12 13 13 13 13 13 13 13 13 13 13 13 13 13 13 12 11
19 20 20 19 19 19 20 19 18 19 18 18 19 20 21 21 22 22 23 24 24 25 25 25 25 25 26 27 26 26 26 27 27 27 27 27 27 27 27 27 27 27 27 26 26 26 25 24 23 23 23 22 21 20 19 18 17 15 14 14 14 14 14 14 13 12 12 12 12 13 13 13 13 13 13 13 13 13 13 13 13 12 12 13 13 13 12
23 24 23 22 20 21 21 21 20 21 21 20 20 21 21 22 23 24 24 24 25 25 25 25 25 25 26 27 27 27 28 28 28 28 28 28 28 28 28 28 28 28 27 26 25 25 25 24 23 23 22 21 20 19 19 18 17 16 14 14 14 14 14 14 13 13 13 13 13 14 14 14 13 13 13 14 13 13 13 13 13 13 13 13 13 13 12
25 26 25 24 23 23 23 23 23 23 22 22 21 22 22 23 23 24 24 25 25 25 26 26 26 26 27 28 28 28 28 28 28 28 29 29 29 29 29 29 29 28 27 26 25 25 25 24 23 22 22 21 20 20 19 18 16 15 15 14 14 15 14 14 14 14 14 15 15 15 15 14 13 13 14 14 14 14 13 13 13 13 13 13 13 13 12
26 27 26 25 24 24 24 25 24 24 24 24 23 24 24 24 25 25 26 26 26 26 26 26 27 27 27 28 28 28 27 27 27 28 29 29 29 29 29 29 28 28 27 26 26 26 25 25 24 23 22 22 20 19 18 17 16 15 15 15 15 15 14 14 14 14 15 15 16 16 15 14 14 14 14 15 15 14 14 14 13 13 12 12 12 12 12
25 26 26 25 25 25 25 25 25 25 25 25 24 24 24 25 25 25 26 26 26 26 26 26 27 27 27 27 27 26 26 26 27 28 28 29 29 29 29 28 28 27 27 26 26 25 25 25 23 22 21 20 19 18 17 17 16 16 16 16 15 15 15 15 15 14 15 15 15 15 14 14 13 14 14 15 15 15 14 14 13 13 12 12 12 12 12
27 27 26 26 26 27 27 27 26 25 25 25 24 24 24 24 24 24 24 25 25 25 25 25 26 26 26 25 25 25 25 26 26 27 28 28 29 29 28 28 27 26 25 25 25 25 25 23 22 21 20 20 19 18 17 17 16 16 16 16 15 15 15 15 14 14 14 14 14 14 14 13 13 14 14 14 14 14 13 13 13 13 13 12 12 11 11
29 29 28 28 28 28 28 27 25 25 25 24 23 23 23 23 24 24 24 24 24 24 25 26 26 26 26 26 25 25 26 26 26 27 27 28 27 27 26 26 25 25 24 24 24 24 23 22 20 20 20 19 19 18 17 16 16 16 16 15 14 14 15 14 14 14 14 14 14 14 13 13 13 13 14 14 13 13 13 13 13 13 12 13 13 12 12
30 30 29 28 28 26 25 25 25 25 25 24 24 24 24 24 24 24 24 25 25 25 25 26 26 26 26 26 26 26 26 26 26 26 26 26 26 25 25 25 24 24 23 23 22 22 21 20 19 18 18 18 17 16 15 15 16 16 15 14 14 14 14 14 14 14 14 14 13 13 13 13 13 13 13 13 13 13 12 12 12 12 12 13 13 13 13
28 29 28 28 26 25 24 24 24 24 24 23 23 24 25 24 23 23 24 24 25 25 25 26 26 25 25 26 26 26 26 26 26 26 25 25 25 25 25 24 23 22 21 20 20 19 19 19 18 17 17 17 15 15 15 15 16 15 15 15 15 14 14 14 14 14 13 13 13 12 13 13 13 13 12 12 12 12 11 11 11 12 12 13 13 14 14
25 26 26 26 25 24 24 24 23 23 23 23 23 24 24 23 23 23 24 25 25 25 25 25 25 25 25 26 26 26 26 26 26 26 25 25 25 24 24 22 20 19 18 18 18 18 18 18 17 16 15 14 13 13 14 15 14 14 14 14 14 14 13 13 13 13 13 12 12 13 13 13 13 13 12 12 12 12 11 11 11 12 12 13 13 14 14
25 24 24 24 23 23 23 23 22 22 23 23 23 23 23 23 23 23 24 24 24 24 24 24 24 26 27 27 26 25 25 25 24 24 24 23 23 22 21 19 18 17 17 17 17 18 17 17 16 14 14 14 14 14 15 15 14 13 13 13 13 12 12 11 12 12 12 12 12 13 12 12 12 12 12 12 11 11 11 11 12 12 12 13 13 14 14
27 26 26 25 24 23 23 23 23 22 22 22 22 22 23 23 23 23 23 23 23 23 23 24 25 26 26 25 25 24 23 23 22 22 21 21 20 19 18 17 17 17 17 17 16 15 14 14 14 14 15 15 15 14 14 14 13 13 13 12 12 11 10 10 11 11 11 11 12 12 11 11 11 11 11 11 11 10 11 11 11 12 13 13 14 14 14
29 29 28 27 25 24 23 23 23 22 22 22 22 22 22 21 20 20 20 21 22 22 22 23 24 24 23 23 22 22 21 21 20 20 19 19 19 18 17 17 16 16 16 16 15 14 14 14 15 15 15 14 13 13 12 12 12 11 11 10 10 10 10 11 11 11 11 11 11 11 11 11 11 11 11 11 11 11 12 12 13 14 14 15 15 15 16
28 27 26 25 24 23 22 22 22 22 21 21 21 21 20 19 19 19 19 20 21 21 21 21 22 22 21 21 21 20 19 19 18 18 18 18 18 17 16 16 15 15 15 14 14 13 13 13 14 14 14 13 12 12 11 11 10 10 9 9 10 10 10 11 11 11 11 11 11 11 11 11 11 12 12 13 13 13 14 14 15 15 16 16 17 17 17
25 24 23 23 22 21 20 20 20 20 20 20 20 19 19 19 18 18 19 19 19 19 20 20 20 20 20 20 19 18 17 17 17 17 17 17 17 16 15 15 15 15 14 13 13 13 13 13 13 12 12 11 11 10 10 10 9 9 9 9 9 9 9 10 10 10 10 11 11 11 12 12 13 13 14 14 15 15 16 16 17 17 17 18 18 18 18
24 23 22 22 20 19 19 19 19 19 19 19 19 19 18 18 18 18 18 18 18 18 19 18 18 18 18 18 17 17 16 16 16 15 15 15 14 14 14 14 13 13 13 12 12 12 13 12 12 11 10 10 9 9 8 8 8 8 8 8 8 9 9 9 9 10 10 10 11 12 13 13 14 15 15 16 17 17 18 18 19 19 19 19 19 19 20
22 21 20 19 18 18 18 18 18 18 18 18 18 18 17 17 17 17 17 17 18 18 18 17 17 17 17 17 16 16 17 16 16 15 14 13 12 12 12 12 12 11 11 12 12 12 12 11 11 10 9 9 8 8 7 7 7 8 8 9 9 9 9 9 10 10 11 11 12 13 14 15 15 16 17 17 18 19 19 19 20 20 20 20 20 20 20
20 20 19 18 18 18 18 17 17 17 17 16 16 16 16 16 16 16 17 17 17 17 16 16 16 16 16 15 15 16 15 15 14 14 13 12 11 10 10 10 9 9 10 11 11 10 10 10 10 9 8 8 8 8 7 7 8 9 9 10 10 10 10 10 11 12 13 14 14 15 16 16 17 17 17 18 18 19 19 20 20 20 21 21 21 21 21
19 19 19 18 18 18 17 16 16 15 15 15 15 15 15 16 16 16 16 16 16 16 16 15 15 15 15 15 14 14 13 13 12 11 10 9 8 7 7 7 7 8 8 8 8 8 8 8 8 8 8 8 9 9 9 9 9 10 10 11 11 11 12 12 13 14 15 16 16 16 17 17 18 18 18 18 19 19 19 20 20 21 21 21 22 22 22
17 17 17 17 17 17 16 16 15 15 15 15 15 15 16 16 16 15 15 15 15 15 15 14 14 14 14 13 13 12 11 10 10 8 7 6 6 5 5 5 6 6 6 6 7 7 7 8 8 9 9 10 10 10 10 10 11 11 11 12 12 13 13 14 15 15 16 16 16 17 17 17 18 18 19 19 19 19 20 20 20 21 21 22 22 22 22
16 16 16 16 17 16 16 15 15 15 15 15 15 15 15 15 15 14 14 14 14 14 14 13 13 13 12 11 11 10 10 9 8 7 6 5 5 5 5 5 6 6 6 7 7 8 8 9 9 10 10 11 11 11 11 11 12 12 13 13 13 14 14 15 16 16 17 17 17 17 17 18 18 19 19 19 20 20 20 20 21 21 21 21 22 22 22
15 15 15 15 15 15 14 14 14 14 14 15 15 14 14 14 14 14 13 13 13 13 12 12 12 11 10 10 9 9 8 7 6 5 5 4 5 5 4 5 6 7 7 8 9 9 9 10 10 10 10 11 11 11 11 12 13 13 13 14 14 15 15 16 17 17 18 18 18 18 18 17 18 18 19 19 20 20 20 21 21 21 21 21 21 21 22
13 13 13 13 14 14 14 14 14 14 14 14 14 13 13 13 13 13 13 13 12 12 11 11 10 9 9 9 8 7 7 6 5 5 4 4 5 5 5 6 7 7 8 9 9 10 10 11 11 11 11 11 12 12 13 13 14 14 14 15 15 15 16 17 17 17 17 17 17 17 17 17 17 18 18 19 19 19 20 20 20 20 21 21 21 21 21
11 12 12 12 12 12 12 13 13 13 13 13 12 13 13 13 13 13 12 12 11 11 11 10 9 9 9 8 7 7 6 6 6 6 6 6 7 7 7 7 8 9 9 10 10 11 11 11 11 12 12 13 13 14 15 15 15 15 16 16 16 17 17 17 17 16 16 15 16 16 16 17 17 18 18 18 18 19 19 19 19 19 20 20 20 20 20
10 10 10 10 11 11 11 12 12 12 12 12 12 12 12 12 12 12 12 11 11 10 10 10 9 9 8 7 7 6 6 6 7 7 8 8 8 8 8 9 9 10 10 11 11 12 12 12 12 12 13 14 14 15 16 17 17 17 17 17 18 17 17 17 16 16 15 15 15 16 16 17 17 18 18 18 18 18 18 18 18 18 18 18 18 18 18
9 9 9 9 10 10 10 11 11 11 11 11 12 12 11 11 11 11 11 10 10 10 9 9 8 8 8 7 7 7 6 6 7 7 8 8 8 8 9 10 10 11 11 12 12 12 12 12 12 13 14 14 15 17 17 18 18 18 18 17 17 16 16 16 15 15 15 15 15 15 16 16 16 17 17 17 17 17 17 17 16 16 17 16 16 16 17
7 7 8 8 8 8 9 9 10 10 11 11 11 11 11 11 10 10 10 10 9 9 8 8 7 7 8 7 7 7 7 7 7 8 8 9 9 10 11 11 11 11 12 12 12 12 12 12 13 14 14 15 16 17 17 17 17 17 16 16 16 16 15 15 15 14 14 14 14 15 15 15 16 16 16 16 15 15 15 15 15 15 15 15 16 16 16
6 6 6 7 7 8 8 9 9 10 10 10 10 10 10 10 10 10 9 9 8 8 8 8 8 8 8 8 8 8 8 8 9 9 9 10 11 11 12 12 12 12 12 13 13 13 13 13 14 14 15 15 16 16 16 15 15 15 14 14 15 15 14 14 14 14 14 14 14 14 15 15 14 14 14 14 14 14 15 15 15 15 15 15 15 15 15
5 5 6 7 7 8 8 9 9 9 10 10 9 9 9 10 10 10 9 9 9 8 8 8 8 8 8 8 9 9 9 9 9 10 10 11 12 12 13 13 13 13 13 13 13 13 14 14 14 14 15 15 15 15 14 14 14 13 13 13 13 13 13 13 13 13 14 13 13 13 13 13 13 13 14 14 14 14 14 14 14 14 14 14 14 15 15
5 6 6 6 7 8 8 9 10 10 10 9 9 9 9 9 9 9 9 9 9 9 8 8 9 8 8 9 9 9 10 10 10 11 11 12 13 13 13 13 13 13 13 14 14 14 14 14 14 13 14 14 14 13 13 13 13 13 12 12 12 12 12 12 12 12 12 13 12 13 13 13 13 14 14 14 14 14 14 14 14 15 15 15 16 16 17
4 5 5 6 6 7 7 8 8 8 8 8 8 8 9 9 9 9 9 9 9 9 9 8 8 9 9 9 10 10 11 11 12 12 13 13 13 14 14 14 14 14 14 14 14 13 13 13 12 12 13 13 13 12 12 12 12 12 12 12 12 12 12 12 12 12 12 12 12 13 13 13 14 14 14 14 14 14 14 15 15 16 16 17 17 18 18
Wind_Direction
257 254 257 261 261 262 264 266 267 268 268 266 264 265 267 266 266 270 272 268 268 274 276 273 273 275 276 274 272 273 274 275 278 282 287 294 301 306 308 309 309 311 313 315 317 319 320 321 322 323 323 324 325 324 322 322 321 321 321 322 323 324 325 325 325 325 325 326 328 329 329 326 322 320 319 317 314 312 309 307 304 304 305 307 307 305 298
264 262 263 265 265 267 268 269 269 268 266 262 261 263 264 264 266 271 273 270 271 278 281 279 278 278 277 276 273 273 274 274 278 283 289 296 302 305 306 306 307 309 311 313 316 318 319 320 321 322 322 322 323 323 322 321 321 321 321 322 323 324 325 325 325 324 325 325 326 328 329 329 326 324 323 319 314 311 310 312 312 309 308 310 311 312 307
268 267 267 268 269 270 270 270 270 269 266 263 263 265 266 268 272 275 276 276 279 284 285 283 279 273 273 273 273 272 272 273 279 285 290 296 300 302 303 303 305 307 309 311 314 317 318 319 320 321 321 321 321 321 320 320 320 321 321 321 322 323 325 326 325 325 325 325 325 326 327 328 328 328 328 324 318 313 310 312 317 315 312 312 314 316 314
264 265 267 270 272 275 274 270 266 266 267 265 266 269 270 270 272 275 278 278 280 284 287 286 280 273 270 270 271 273 273 275 279 284 290 295 298 299 299 300 303 306 308 310 312 315 317 317 319 320 320 320 320 319 320 320 320 321 320 319 321 322 324 325 325 326 326 326 326 326 325 326 327 327 328 327 325 321 315 313 318 318 315 314 316 319 318
260 263 264 268 274 278 275 267 260 263 267 268 270 272 271 271 271 270 273 276 278 280 283 285 283 279 274 270 270 272 273 275 281 286 290 293 294 295 296 299 303 305 306 309 311 313 315 317 318 319 319 319 319 319 319 320 320 320 319 318 319 321 323 323 324 326 327 327 327 326 325 325 326 327 327 326 326 326 321 318 320 320 318 317 317 320 321
260 264 266 269 274 274 270 264 259 262 267 269 270 269 266 269 272 271 273 276 278 279 280 279 278 276 272 270 271 272 274 278 283 287 288 290 291 293 296 299 303 304 305 308 310 312 315 318 319 319 319 319 319 318 318 318 319 320 319 318 318 321 322 322 322 325 327 327 328 328 327 326 326 327 327 325 324 324 322 321 320 320 321 320 318 320 321
260 265 268 268 268 266 266 270 268 265 265 266 267 268 267 268 270 271 275 277 276 278 279 276 274 272 270 271 274 276 278 281 284 286 286 289 291 293 297 300 302 302 303 306 309 312 316 318 318 318 318 318 318 317 317 316 317 317 317 317 318 319 320 320 321 323 325 327 328 328 328 327 326 326 327 327 326 324 322 322 321 320 322 323 321 322 322
259 263 262 261 265 269 274 278 275 270 267 265 264 269 274 274 270 268 273 276 276 276 276 275 274 273 275 279 279 279 281 283 284 285 287 289 292 294 297 299 299 299 301 305 309 312 315 316 317 317 317 317 317 317 316 315 315 315 314 315 317 317 318 318 320 322 324 326 327 327 327 327 325 324 325 326 328 327 325 324 324 322 323 326 327 328 327
259 260 261 264 271 276 277 276 272 268 268 264 262 265 271 275 274 269 268 272 274 273 272 273 275 279 284 287 284 282 281 282 285 288 290 291 293 295 296 297 297 298 302 306 309 311 312 314 315 315 314 315 315 315 315 315 314 313 311 311 314 315 315 316 319 321 322 323 324 324 325 325 325 323 324 324 325 327 327 327 326 323 321 327 332 334 333
260 259 265 270 272 272 272 270 268 267 267 265 265 267 270 275 277 270 263 264 269 271 273 274 276 283 288 289 287 283 280 283 288 292 293 293 293 294 295 297 297 298 301 305 307 309 311 312 313 313 313 313 313 313 313 313 313 311 308 307 309 311 311 313 315 318 320 321 321 322 323 324 324 323 323 322 322 326 328 328 327 323 320 323 330 334 337
257 255 260 263 264 268 270 270 271 270 266 266 274 275 272 274 277 272 263 262 266 268 270 273 279 286 288 289 289 284 281 285 290 292 294 294 294 294 295 297 297 298 301 305 307 309 310 311 311 312 312 312 313 313 312 312 311 308 305 304 305 306 307 308 311 314 316 317 319 320 320 322 324 323 322 322 321 324 327 328 328 325 320 319 325 331 336
253 252 256 261 264 269 271 271 272 269 267 271 277 273 270 271 273 271 265 263 265 266 268 275 283 287 286 288 289 286 285 288 290 291 292 292 291 293 295 297 298 299 302 305 306 307 309 310 310 310 311 312 313 313 313 311 309 306 303 302 302 303 303 306 308 310 311 313 316 317 317 320 322 321 321 321 320 322 325 327 328 327 325 321 324 330 334
251 251 256 262 266 268 270 273 275 271 269 270 269 266 267 268 267 268 266 264 265 267 271 278 284 284 284 288 291 291 289 289 289 289 289 288 288 291 294 296 298 300 302 303 304 305 307 308 308 309 311 312 313 314 313 310 307 305 303 302 301 301 302 304 307 309 309 310 311 312 314 317 320 320 321 320 318 318 320 323 325 329 329 325 325 329 331
252 252 255 262 267 267 267 271 276 274 267 264 264 265 266 264 262 265 269 269 271 273 275 280 284 285 287 291 293 293 291 290 290 289 288 288 290 292 294 296 298 299 301 302 302 303 305 305 306 308 309 310 312 313 312 309 306 304 303 301 300 301 302 303 306 308 309 309 311 311 312 315 317 319 321 320 319 316 315 317 320 325 329 326 324 326 329
253 254 255 261 266 267 266 268 273 273 265 262 265 266 266 266 265 267 271 272 274 277 279 282 284 286 289 291 293 292 291 291 290 288 287 288 290 291 293 294 295 297 299 300 300 301 301 302 304 306 307 308 310 311 310 308 306 303 301 299 299 301 303 303 304 306 307 309 312 312 311 312 315 317 320 321 321 318 314 315 317 319 323 324 322 323 327
252 252 256 260 262 264 264 263 264 265 262 260 261 263 266 269 270 270 274 277 277 279 281 283 285 288 289 291 292 291 290 289 288 286 286 287 288 289 290 291 292 295 296 296 297 298 298 300 303 305 305 307 309 309 309 308 305 301 299 298 297 299 303 303 303 306 306 307 310 312 312 312 313 315 318 320 320 318 315 315 317 318 319 321 320 319 319
253 254 257 260 261 261 263 263 261 260 261 261 262 264 268 272 273 274 277 279 280 281 283 284 287 289 290 291 291 291 290 288 286 286 286 286 287 288 288 289 291 293 293 293 294 295 296 299 302 303 304 306 307 307 308 307 303 299 297 296 295 297 302 303 303 306 306 306 308 311 312 313 315 316 317 318 318 318 316 315 315 317 318 318 318 316 312
257 258 259 261 262 263 262 263 263 263 263 264 266 270 273 274 276 278 279 280 281 283 284 286 288 289 290 290 291 290 290 289 288 287 287 287 287 288 288 289 290 291 292 292 292 293 295 297 300 302 303 305 306 306 306 305 303 299 296 294 293 295 298 301 303 305 306 305 307 310 312 314 317 318 318 318 318 319 319 317 315 316 317 317 316 315 312
254 258 262 263 266 267 265 266 269 270 269 268 270 273 276 277 278 279 280 282 284 285 287 288 288 288 289 290 291 292 291 290 289 289 288 288 288 287 288 288 289 290 291 291 291 292 293 295 298 300 302 303 304 305 304 303 302 300 296 292 291 292 295 299 302 302 301 303 307 312 314 317 319 320 319 319 320 320 320 320 317 315 316 317 316 315 316
253 256 259 261 267 272 271 271 273 273 271 272 274 276 278 280 282 282 283 284 286 288 290 290 290 290 291 291 291 292 291 290 289 289 289 288 288 288 288 289 289 290 290 290 290 291 292 294 297 299 300 301 302 303 301 300 301 300 296 291 287 288 292 296 298 296 295 298 305 311 316 318 320 319 318 318 320 320 319 318 317 314 313 313 313 311 312
257 256 256 257 265 273 273 273 275 273 271 272 275 278 281 283 286 287 288 289 289 290 290 291 291 292 292 292 292 292 291 290 289 289 289 288 288 288 288 289 289 289 288 288 289 290 291 292 295 297 298 299 300 299 298 298 299 298 295 290 286 286 289 292 293 292 292 295 300 307 312 316 317 317 315 315 316 318 318 317 316 314 311 309 309 307 306
256 254 253 256 261 264 265 266 268 269 270 273 275 279 283 285 286 286 288 289 290 290 290 291 290 291 292 293 292 292 291 290 289 288 288 287 287 287 287 288 289 288 287 287 287 288 289 290 292 295 296 297 298 297 296 295 295 292 290 288 285 284 287 289 289 289 290 291 296 302 307 310 313 314 315 315 314 314 316 317 318 317 313 310 307 304 301
254 253 253 255 258 259 260 263 265 267 270 274 277 281 285 285 283 284 285 287 289 290 291 291 290 290 291 292 293 292 291 290 288 288 287 287 286 286 287 288 288 287 286 286 285 286 287 288 290 292 293 293 294 294 293 293 291 288 288 287 284 283 284 286 286 285 284 286 292 297 301 304 307 310 312 314 313 312 314 316 318 318 317 315 311 306 300
255 256 254 255 258 259 260 263 267 268 271 275 278 282 284 284 283 284 286 287 288 289 290 290 290 289 291 292 292 291 291 290 288 288 287 287 287 288 288 288 287 286 284 283 283 284 286 287 288 289 290 290 290 290 290 289 288 286 285 285 284 283 281 282 284 283 284 286 289 292 295 298 301 305 307 309 309 310 311 313 315 317 318 318 316 312 306
255 256 255 256 258 259 260 265 269 271 273 276 278 280 281 282 283 285 287 288 288 289 289 289 290 291 292 292 291 291 290 290 288 287 287 288 289 289 288 287 287 286 284 283 283 284 285 286 286 287 288 289 288 287 286 286 285 285 284 283 283 283 281 282 284 284 285 288 289 289 291 293 296 299 303 304 305 304 305 308 311 314 317 319 318 316 312
255 254 256 260 262 261 262 266 270 272 273 274 276 278 280 282 284 286 287 287 288 289 289 289 291 293 294 294 293 291 291 290 289 288 289 289 289 289 288 287 287 286 284 283 284 285 285 285 285 284 284 287 288 285 283 284 285 285 284 282 280 280 280 281 283 284 286 287 288 288 289 290 292 295 299 302 302 301 302 303 306 309 313 316 318 318 316
255 254 257 261 263 263 263 264 266 268 271 274 276 278 280 282 284 286 287 287 288 289 289 290 292 294 294 294 294 292 291 291 290 290 290 289 289 289 288 288 286 285 284 283 283 284 284 283 281 279 280 285 287 284 280 280 283 285 284 282 279 278 279 281 283 285 288 289 290 290 288 288 291 294 298 301 301 300 300 302 302 303 306 308 311 314 314
256 255 257 259 260 260 262 263 264 267 270 273 274 276 279 282 284 287 289 289 289 289 290 290 291 291 292 292 292 292 292 292 291 291 291 290 289 289 289 288 286 284 283 282 283 283 283 281 278 277 279 284 287 284 279 279 282 283 282 282 280 279 280 282 283 285 288 290 290 290 289 290 292 295 298 301 300 299 300 302 302 302 302 303 305 306 307
254 255 258 260 259 258 259 262 264 266 269 272 274 277 279 282 286 288 289 289 289 290 292 292 292 291 291 291 290 291 292 292 292 292 291 290 289 289 289 287 285 283 282 282 282 283 282 279 277 277 280 283 285 283 280 281 282 281 279 279 279 279 278 279 280 282 285 288 289 290 291 293 294 295 298 299 299 299 300 302 302 303 303 304 305 305 304
252 253 256 259 259 258 259 262 265 267 270 273 276 279 281 284 286 288 290 291 292 292 293 293 292 292 292 291 291 291 292 292 291 290 289 289 289 288 288 287 285 284 283 282 281 281 279 277 275 275 280 284 285 285 286 285 283 281 279 278 277 276 275 276 278 281 284 286 287 289 291 292 293 294 296 298 299 299 300 302 303 304 305 307 309 308 307
249 249 252 255 257 258 260 262 265 268 271 273 276 280 282 284 285 287 289 291 292 292 293 293 293 292 292 292 292 292 292 291 290 289 289 288 287 286 286 285 284 285 284 283 281 280 279 277 274 273 278 283 286 291 294 291 285 283 284 283 280 277 276 277 279 280 281 282 285 287 289 290 292 293 294 295 296 297 299 301 302 303 305 307 309 309 308
245 247 250 253 255 257 259 261 264 267 270 273 277 280 282 283 285 287 289 290 291 292 293 294 294 295 294 293 293 293 292 291 291 290 290 290 289 287 286 284 283 283 283 282 281 279 277 274 273 275 281 284 287 292 295 292 286 285 286 285 282 279 278 280 281 280 280 281 284 286 289 291 292 293 293 295 295 296 298 299 301 303 305 306 308 310 310
242 245 248 250 253 255 257 259 263 266 269 273 276 280 283 285 286 287 288 290 292 293 294 295 297 298 298 297 295 293 292 292 292 293 293 293 291 290 288 285 283 281 280 280 281 280 276 272 273 280 287 290 289 290 289 287 286 286 285 283 279 276 278 283 285 283 283 284 285 287 289 290 291 292 294 296 297 297 299 301 303 304 306 307 308 309 311
243 245 247 249 251 253 255 258 261 264 267 271 276 280 284 286 287 288 290 292 294 295 296 297 299 300 301 301 298 296 294 293 294 294 294 293 292 290 288 286 284 281 279 278 279 280 279 277 278 283 289 292 291 289 287 288 290 289 285 281 278 278 280 284 284 283 284 285 286 287 287 287 288 290 293 295 297 298 300 302 302 303 304 305 305 306 308
245 246 247 249 251 253 255 258 261 263 266 270 274 279 283 285 286 289 291 293 294 295 297 299 301 303 303 302 300 298 296 294 293 293 292 291 290 289 286 284 283 282 279 277 278 280 281 282 283 286 290 291 289 286 285 288 291 290 285 283 283 283 283 283 283 283 283 283 284 285 286 286 287 289 291 292 294 295 297 298 300 300 301 302 301 302 303
243 243 245 248 250 252 255 259 262 264 266 269 273 277 281 284 285 288 290 292 293 295 297 300 302 303 303 302 300 298 296 294 293 293 291 289 288 287 285 284 284 282 278 276 278 280 281 283 287 289 289 288 287 285 286 288 290 289 288 288 287 286 285 283 283 283 283 283 284 286 287 288 289 289 290 291 292 293 294 295 296 298 298 298 298 298 298
239 240 242 244 246 249 254 258 261 264 267 270 274 277 280 282 283 284 287 290 293 295 297 300 301 301 301 301 300 299 297 296 295 294 292 289 288 288 287 286 285 281 276 275 279 281 281 285 289 289 286 285 286 288 290 291 289 288 289 291 290 289 287 285 283 284 284 285 287 288 289 290 290 290 291 291 291 292 293 294 294 295 296 296 296 296 295
235 236 238 241 245 249 254 258 262 265 268 271 274 275 277 277 279 281 285 289 291 294 296 298 299 300 301 301 301 301 300 299 297 295 292 291 291 292 290 287 283 280 277 277 280 281 280 283 288 287 282 281 284 288 292 296 294 291 291 292 292 291 289 288 287 288 289 290 291 291 291 291 291 292 293 293 293 293 294 294 294 294 294 294 294 294 293
232 235 240 244 248 252 256 261 264 267 268 270 272 273 274 275 277 281 286 289 290 292 295 297 298 300 301 302 302 302 302 300 299 296 293 292 292 293 291 287 284 282 281 280 281 281 280 280 282 281 279 280 283 287 291 296 296 294 293 294 294 293 292 291 291 292 293 293 294 293 293 293 293 294 295 295 295 295 295 294 294 293 293 293 292 292 291
234 238 242 246 250 253 257 260 263 265 266 267 269 271 272 274 278 283 286 288 289 290 292 296 298 300 301 301 302 302 302 302 302 300 296 294 293 291 290 288 286 284 283 283 284 284 283 281 279 279 281 284 286 287 289 292 293 293 293 295 296 296 295 295 295 296 296 296 296 295 295 294 294 295 295 296 296 296 295 295 295 294 293 293 292 291 290
234 237 240 242 246 250 254 256 259 262 265 266 268 271 273 276 280 283 284 286 287 289 292 294 297 299 299 299 300 300 300 301 303 302 297 294 292 289 290 290 287 285 288 292 292 291 290 287 285 285 287 288 288 288 289 290 290 291 292 293 294 295 296 297 298 299 298 298 297 296 296 296 295 296 296 296 297 297 297 296 296 295 295 294 293 292 291
232 234 237 240 244 248 251 253 255 259 263 266 270 274 277 279 280 281 282 285 288 289 291 292 294 296 297 297 297 297 295 296 298 298 295 293 292 290 288 287 286 288 293 295 295 294 292 290 289 290 291 290 290 291 291 290 290 291 292 293 294 295 297 298 298 299 299 298 297 297 297 296 296 297 297 298 298 298 297 297 297 297 296 295 294 293 293
231 235 239 242 245 247 249 251 254 258 263 268 272 275 277 277 278 279 282 285 288 289 289 290 292 293 293 294 295 293 291 289 291 292 293 297 301 300 295 290 290 294 297 295 294 294 293 291 291 293 294 293 293 294 294 293 292 293 294 294 296 297 297 298 298 299 298 298 297 297 296 296 296 297 298 298 298 298 297 298 298 298 297 296 294 294 293
233 236 240 243 245 246 248 252 256 260 266 270 274 275 275 276 277 279 280 283 285 286 287 289 289 288 288 290 292 291 287 284 284 284 286 294 301 302 300 297 297 300 302 301 299 298 298 296 295 296 296 295 295 295 295 294 295 295 296 296 297 297 298 298 299 299 300 299 299 298 297 296 296 297 298 299 299 298 298 298 298 298 297 296 296 295 294
238 240 241 243 245 247 250 254 258 262 266 269 272 273 274 275 277 278 279 281 282 283 284 284 282 281 281 285 288 287 282 278 279 281 284 289 292 292 294 297 301 303 305 305 303 302 301 299 298 297 296 295 295 296 296 296 296 297 298 298 297 297 298 299 299 299 300 300 299 298 298 297 298 298 299 300 300 300 299 299 299 299 298 298 297 297 296
241 242 243 245 248 252 255 256 258 261 264 267 270 272 274 275 277 278 278 278 278 279 279 279 278 276 275 277 279 279 279 280 284 286 288 289 289 289 291 295 299 302 303 304 304 303 302 300 299 299 297 296 296 297 296 296 297 298 298 298 298 298 298 299 299 299 298 298 297 297 297 298 298 299 300 301 301 301 301 301 301 301 300 300 299 299 298
242 245 247 250 254 256 257 257 258 260 264 268 270 272 273 274 274 274 275 276 275 275 276 276 276 275 273 272 271 272 274 280 288 291 292 291 291 291 292 294 297 299 301 303 304 304 302 300 298 297 296 296 297 297 296 296 296 297 297 298 299 299 298 298 299 299 298 297 297 298 298 299 300 301 302 302 303 303 303 303 303 303 303 303 303 303 302
243 248 251 254 256 257 258 259 261 264 266 268 269 270 271 271 270 271 272 273 272 271 271 271 272 272 271 270 270 271 274 280 286 288 288 289 292 294 295 297 298 300 301 303 304 304 302 299 297 296 296 296 296 296 296 296 296 296 296 298 299 299 298 298 298 299 299 299 300 300 301 302 303 304 305 306 306 306 307 307 307 307 307 307 306 306 306
243 249 254 256 259 261 262 263 265 267 268 267 268 270 270 269 269 269 270 269 268 267 265 265 267 269 268 269 270 273 277 282 284 284 284 289 294 297 298 298 299 300 300 301 302 303 301 299 299 299 298 298 297 296 297 298 297 296 295 297 299 300 300 300 300 300 301 301 302 303 303 304 305 306 307 308 308 308 309 309 309 310 311 311 310 310 310
245 254 259 263 264 265 266 268 269 269 268 268 268 269 269 268 267 267 266 264 264 263 263 263 266 268 269 270 272 275 278 282 286 288 291 294 297 298 297 296 296 297 298 300 302 302 300 300 300 301 300 299 298 297 297 298 297 296 296 296 297 299 300 302 303 303 304 303 303 304 305 306 307 308 308 309 309 309 310 310 311 312 313 313 313 313 313
254 258 263 269 273 274 275 276 273 269 267 266 267 267 268 268 267 265 262 261 261 262 262 264 267 269 271 273 277 281 284 287 291 294 296 297 298 298 297 295 294 295 296 299 302 302 301 301 302 303 302 301 299 298 297 297 297 297 297 297 297 299 301 303 304 306 306 306 305 305 306 307 308 308 309 309 311 311 312 312 312 312 313 312 312 311 310
267 263 266 275 281 284 285 284 279 272 267 265 264 265 266 266 265 264 262 261 260 261 262 264 268 271 274 278 283 287 289 291 294 296 297 298 299 299 297 295 294 295 297 300 302 303 303 304 305 306 305 303 301 298 298 298 298 298 299 300 299 300 302 304 305 306 308 307 306 306 307 308 309 309 309 310 311 311 311 311 310 309 309 309 308 308 307